EW2997 Weather Reports


time (UTC)temp
F
wind
direction
speed
knots
gust
knots
rain 1hr
in
rain 24hr
in
rain mn
in
humidity
%
barometer
mb
20260905215637 79 52 1.7 1.7 0.00 0.00 0.00 60 1014.9
20260905212632 79 42 1.7 1.7 0.00 0.00 0.00 59 1014.9
20260905205630 78 51 0.0 0.0 0.00 0.00 0.00 64 1015.2
20260905202627 80 42 0.0 0.0 0.00 0.00 0.00 58 1015.2
20260905195624 80 54 1.7 1.7 0.00 0.00 0.00 61 1014.9
20260905192622 81 6 1.7 1.7 0.00 0.00 0.00 56 1015.6
20260905185619 79 53 0.9 0.9 0.00 0.00 0.00 62 1015.6
20260905182619 78 78 0.0 0.0 0.00 0.00 0.00 66 1016.0
20260905175614 78 175 1.7 1.7 0.00 0.00 0.00 65 1016.3
20260905172614 77 342 1.7 1.7 0.00 0.00 0.00 66 1016.3
20260905165611 78 162 1.7 1.7 0.00 0.00 0.00 69 1017.0
20260905162607 77 286 0.0 0.0 0.00 0.00 0.00 71 1017.4
20260905155603 76 241 0.0 0.0 0.00 0.00 0.00 73 1017.7
20260905152600 75 66 1.7 1.7 0.00 0.00 0.00 78 1017.4
20260905145556 75 138 0.0 0.0 0.00 0.00 0.00 80 1017.4
20260905142555 74 138 0.0 0.0 0.00 0.00 0.00 82 1017.4
20260905135553 75 139 1.7 1.7 0.00 0.00 0.00 81 1016.7
20260905132548 74 38 0.0 0.0 0.00 0.00 0.00 84 1016.7
20260905125545 74 36 0.0 0.0 0.00 0.00 0.00 86 1017.0
20260905122542 74 222 0.0 0.0 0.00 0.00 0.00 83 1016.3
20260905115537 70 222 0.0 0.0 0.00 0.00 0.00 95 1016.3
20260905112534 69 222 0.0 0.0 0.00 0.00 0.00 96 1016.3
20260905105530 69 222 0.0 0.0 0.00 0.00 0.00 97 1016.3
20260905102529 68 222 0.0 0.0 0.00 0.00 0.00 97 1016.0
20260905095525 68 222 0.0 0.0 0.00 0.00 0.00 97 1015.6
20260905092524 68 222 0.0 0.0 0.00 0.00 0.00 97 1015.6
20260905085524 67 223 0.0 0.0 0.00 0.00 0.00 97 1015.2
20260905082519 68 224 0.0 0.0 0.00 0.00 0.00 97 1016.0
20260905075514 67 224 0.0 0.0 0.00 0.00 0.00 97 1016.0
20260905072513 68 224 0.0 0.0 0.00 0.00 0.00 97 1016.0
20260905065511 67 228 0.0 0.0 0.00 0.00 0.00 97 1016.3
20260905062509 68 226 0.0 0.0 0.00 0.00 0.00 97 1016.7
20260905055505 69 221 0.0 0.0 0.00 0.00 0.00 97 1017.0
20260905052504 68 221 0.0 0.0 0.00 0.00 0.00 97 1017.4
20260905045500 69 221 0.0 0.0 0.00 0.00 0.00 97 1017.4
20260905042456 69 221 0.0 0.0 0.00 0.00 0.00 97 1017.4
20260905035453 70 221 0.0 0.0 0.00 0.00 0.00 97 1017.4
20260905032453 70 221 0.0 0.0 0.00 0.00 0.00 96 1017.4
20260905025452 70 221 0.0 0.0 0.00 0.00 0.00 96 1017.4
20260905022451 70 221 0.0 0.0 0.00 0.00 0.00 96 1017.0
20260905015445 71 221 0.0 0.0 0.00 0.00 0.00 95 1016.7
20260905012445 71 221 0.0 0.0 0.00 0.00 0.00 94 1016.7
20260905005443 72 236 0.9 0.9 0.00 0.00 0.00 94 1017.0
20260905002443 74 239 1.7 1.7 0.00 0.00 0.00 91 1016.3
20260904235443 75 222 1.7 1.7 0.00 0.00 0.00 90 1016.3
20260904232444 78 222 0.0 0.0 0.00 0.00 0.00 85 1016.3
20260904225440 79 222 0.0 0.0 0.00 0.00 0.00 84 1016.3
20260904222438 80 222 0.9 0.9 0.00 0.00 0.00 77 1017.0